This is the latest recevied weather packets stored in our database for station/object KE6LRO. If no packets are shown the sender has not sent any weather packets the latest 10 day(s).
| Time | Temp. | Humidity | Pressure | Rain* | Wind** | Luminosity | Snow |
|---|---|---|---|---|---|---|---|
| 1777904287 | 2.78° C | 99% | 1016.8 hPa | 0 mm | - | 101 W/m² | - |
| 1777903984 | 2.78° C | 99% | 1016.7 hPa | 0 mm | - | 68 W/m² | - |
| 1777903680 | 1.67° C | 99% | 1016.7 hPa | 0 mm | - | 86 W/m² | - |
| 1777903376 | 1.67° C | 99% | 1017.1 hPa | 0 mm | - | 53 W/m² | - |
| 1777903073 | 1.11° C | 99% | 1016.5 hPa | 0 mm | - | 53 W/m² | - |
| 1777902769 | 1.11° C | 99% | 1016.7 hPa | 0 mm | - | 40 W/m² | - |
| 1777902467 | 1.11° C | 99% | 1016.8 hPa | 0 mm | - | 36 W/m² | - |
| 1777902163 | 0.56° C | 99% | 1016.6 hPa | 0 mm | - | 33 W/m² | - |
| 1777901862 | 1.11° C | 99% | 1016.7 hPa | 0 mm | - | 31 W/m² | - |
| 1777901559 | 0.56° C | 99% | 1016.7 hPa | 0 mm | - | 29 W/m² | - |
| 1777901256 | 0.56° C | 99% | 1016.6 hPa | 0 mm | - | 27 W/m² | - |
| 1777900954 | 0.56° C | 99% | 1016.4 hPa | 0 mm | - | 26 W/m² | - |
| 1777900651 | 0.56° C | 99% | 1016.3 hPa | 0 mm | - | 24 W/m² | - |
| 1777900348 | 0.56° C | 99% | 1016.4 hPa | 0 mm | - | 22 W/m² | - |
| 1777900045 | 0.56° C | 99% | 1016.3 hPa | 0 mm | - | 20 W/m² | - |
| 1777899740 | 0.56° C | 99% | 1016.3 hPa | 0 mm | - | 17 W/m² | - |
| 1777899438 | 0.56° C | 99% | 1016.2 hPa | 0 mm | - | 14 W/m² | - |
| 1777899136 | 0.56° C | 99% | 1016.2 hPa | 0 mm | - | 13 W/m² | - |
| 1777898833 | 0.56° C | 99% | 1016.3 hPa | 0 mm | - | 12 W/m² | - |
| 1777898531 | 0.56° C | 99% | 1015.9 hPa | 0 mm | - | 10 W/m² | - |
| 1777898228 | 0.56° C | 99% | 1015.8 hPa | 0 mm | - | 8 W/m² | - |
| 1777897925 | 0.56° C | 99% | 1015.8 hPa | 0 mm | - | 6 W/m² | - |
| 1777897621 | 0.56° C | 99% | 1015.8 hPa | 0 mm | - | 4 W/m² | - |
| 1777897316 | 0.56° C | 99% | 1015.7 hPa | 0 mm | - | 3 W/m² | - |
| 1777897013 | 0.56° C | 99% | 1015.7 hPa | 0 mm | - | 2 W/m² | - |
* Rain latest hour (hover to see other rain measurements)
** Current wind speed in m/s (hover to see current wind gust speed)